| time (UTC) | temp C | wind direction | speed KPH | gust KPH | rain 1hr cm | rain 24hr cm | rain mn cm | humidity % | barometer mb |
| 20260507054956 | 11 | 155 | 0.0 | 0.0 | 0.00 | 0.03 | 0.03 | 93 | 1019.6 |
| 20260507054450 | 11 | 155 | 0.0 | 0.0 | 0.00 | 0.03 | 0.03 | 93 | 1019.6 |
| 20260507054216 | 11 | 155 | 0.0 | 0.0 | 0.00 | 0.03 | 0.03 | 93 | 1019.6 |
| 20260507053444 | 11 | 155 | 0.0 | 0.0 | 0.00 | 0.03 | 0.03 | 93 | 1019.6 |
| 20260507052944 | 11 | 155 | 0.0 | 0.0 | 0.00 | 0.03 | 0.03 | 93 | 1019.6 |
| 20260507052718 | 11 | 155 | 0.0 | 0.0 | 0.00 | 0.03 | 0.03 | 93 | 1019.5 |
| 20260507051944 | 11 | 155 | 0.0 | 0.0 | 0.00 | 0.03 | 0.03 | 93 | 1019.6 |
| 20260507051442 | 11 | 155 | 0.0 | 0.0 | 0.00 | 0.03 | 0.03 | 93 | 1019.5 |
| 20260507050939 | 11 | 155 | 0.0 | 0.0 | 0.00 | 0.03 | 0.03 | 93 | 1019.6 |
| 20260507050438 | 11 | 155 | 0.0 | 0.0 | 0.00 | 0.03 | 0.03 | 93 | 1019.6 |
| 20260507050158 | 11 | 155 | 0.0 | 0.0 | 0.00 | 0.03 | 0.03 | 93 | 1019.6 |
| 20260507045436 | 11 | 155 | 0.0 | 0.0 | 0.00 | 0.03 | 0.03 | 93 | 1019.6 |
| 20260507044936 | 11 | 155 | 0.0 | 0.0 | 0.00 | 0.03 | 0.03 | 93 | 1019.6 |
| 20260507044438 | 11 | 155 | 0.0 | 0.0 | 0.00 | 0.03 | 0.03 | 93 | 1019.6 |
| 20260507043936 | 11 | 155 | 0.0 | 0.0 | 0.00 | 0.03 | 0.03 | 93 | 1019.6 |
| 20260507043432 | 11 | 155 | 0.0 | 0.0 | 0.00 | 0.03 | 0.03 | 93 | 1019.5 |
| 20260507042933 | 11 | 155 | 0.0 | 0.0 | 0.00 | 0.03 | 0.03 | 93 | 1019.6 |
| 20260507042431 | 11 | 155 | 0.0 | 0.0 | 0.00 | 0.03 | 0.03 | 93 | 1019.6 |
| 20260507041929 | 11 | 155 | 0.0 | 0.0 | 0.00 | 0.03 | 0.03 | 93 | 1019.6 |
| 20260507041433 | 11 | 155 | 0.0 | 0.0 | 0.00 | 0.03 | 0.03 | 93 | 1019.6 |
| 20260507040931 | 11 | 155 | 0.0 | 0.0 | 0.00 | 0.03 | 0.03 | 93 | 1019.6 |
| 20260507040427 | 11 | 155 | 0.0 | 0.0 | 0.00 | 0.03 | 0.03 | 93 | 1019.5 |
| 20260507035922 | 11 | 155 | 0.0 | 0.0 | 0.00 | 0.03 | 0.03 | 93 | 1019.5 |
| 20260507035417 | 11 | 155 | 0.0 | 0.0 | 0.00 | 0.03 | 0.03 | 93 | 1019.5 |
| 20260507034913 | 11 | 155 | 0.0 | 0.0 | 0.00 | 0.03 | 0.03 | 93 | 1019.4 |
| 20260507034412 | 11 | 155 | 0.0 | 0.0 | 0.00 | 0.03 | 0.03 | 93 | 1019.3 |
| 20260507033914 | 11 | 155 | 0.0 | 0.0 | 0.00 | 0.03 | 0.03 | 93 | 1019.3 |
| 20260507033412 | 11 | 155 | 0.0 | 0.0 | 0.00 | 0.03 | 0.03 | 93 | 1019.2 |
| 20260507032911 | 12 | 155 | 0.0 | 0.0 | 0.00 | 0.03 | 0.03 | 93 | 1019.2 |
| 20260507032412 | 12 | 155 | 0.0 | 0.0 | 0.00 | 0.03 | 0.03 | 93 | 1019.2 |
| 20260507031915 | 12 | 155 | 0.0 | 0.0 | 0.00 | 0.03 | 0.03 | 93 | 1019.2 |
| 20260507031411 | 12 | 155 | 0.0 | 0.0 | 0.00 | 0.03 | 0.03 | 93 | 1019.2 |
| 20260507030914 | 12 | 155 | 0.0 | 0.0 | 0.00 | 0.03 | 0.03 | 93 | 1019.1 |
| 20260507030412 | 12 | 155 | 0.0 | 0.0 | 0.00 | 0.03 | 0.03 | 93 | 1019.1 |
| 20260507025915 | 12 | 155 | 0.0 | 0.0 | 0.00 | 0.03 | 0.03 | 93 | 1019.1 |
| 20260507025412 | 12 | 155 | 0.0 | 0.0 | 0.00 | 0.03 | 0.03 | 93 | 1019.0 |
| 20260507024913 | 12 | 155 | 0.0 | 0.0 | 0.00 | 0.03 | 0.03 | 93 | 1019.0 |
| 20260507024413 | 12 | 155 | 0.0 | 0.0 | 0.00 | 0.03 | 0.03 | 93 | 1019.0 |
| 20260507023913 | 12 | 155 | 0.0 | 0.0 | 0.00 | 0.03 | 0.03 | 92 | 1019.0 |
| 20260507023412 | 12 | 155 | 0.0 | 0.0 | 0.00 | 0.03 | 0.03 | 92 | 1019.0 |
| 20260507022912 | 12 | 155 | 0.0 | 0.0 | 0.00 | 0.03 | 0.03 | 92 | 1018.9 |
| 20260507022418 | 12 | 155 | 0.0 | 0.0 | 0.00 | 0.03 | 0.03 | 92 | 1018.9 |
| 20260507021910 | 12 | 155 | 0.0 | 0.0 | 0.03 | 0.03 | 0.03 | 92 | 1018.9 |
| 20260507021402 | 12 | 155 | 0.0 | 0.0 | 0.03 | 0.03 | 0.03 | 92 | 1019.0 |
| 20260507020900 | 12 | 155 | 0.0 | 0.0 | 0.03 | 0.03 | 0.03 | 92 | 1019.0 |
| 20260507020402 | 12 | 155 | 0.0 | 0.0 | 0.03 | 0.03 | 0.03 | 92 | 1019.0 |
| 20260507015900 | 12 | 155 | 0.0 | 0.0 | 0.03 | 0.03 | 0.03 | 92 | 1019.0 |
| 20260507015404 | 12 | 155 | 0.0 | 0.0 | 0.03 | 0.03 | 0.03 | 92 | 1019.0 |
| 20260507014901 | 12 | 155 | 0.0 | 0.0 | 0.03 | 0.03 | 0.03 | 92 | 1019.0 |
| 20260507014359 | 12 | 155 | 0.0 | 0.0 | 0.03 | 0.03 | 0.03 | 91 | 1018.9 |
| 20260507014114 | 12 | 155 | 0.0 | 0.0 | 0.03 | 0.03 | 0.03 | 91 | 1019.0 |
| 20260507013607 | 12 | 155 | 0.0 | 0.0 | 0.03 | 0.03 | 0.03 | 91 | 1018.9 |
| 20260507013449 | 12 | 155 | 0.0 | 0.0 | 0.03 | 0.03 | 0.03 | 91 | 1019.0 |
| 20260507012354 | 12 | 155 | 0.0 | 0.0 | 0.03 | 0.03 | 0.03 | 91 | 1019.0 |
| 20260507011857 | 12 | 155 | 0.0 | 0.0 | 0.00 | 0.00 | 0.00 | 92 | 1019.0 |
| 20260507011355 | 12 | 155 | 0.0 | 0.0 | 0.00 | 0.00 | 0.00 | 92 | 1019.0 |
| 20260507011332 | 12 | 155 | 0.0 | 0.0 | 0.00 | 0.00 | 0.00 | 92 | 1019.0 |
| 20260507010352 | 12 | 155 | 0.0 | 0.0 | 0.00 | 0.00 | 0.00 | 91 | 1019.2 |
| 20260507010125 | 12 | 155 | 0.0 | 0.0 | 0.00 | 0.00 | 0.00 | 91 | 1019.2 |
| 20260507005349 | 12 | 155 | 0.0 | 0.0 | 0.00 | 0.00 | 0.00 | 90 | 1019.3 |
| 20260507004851 | 12 | 155 | 0.0 | 0.0 | 0.00 | 0.00 | 0.00 | 90 | 1019.3 |
| 20260507004350 | 12 | 155 | 0.0 | 0.0 | 0.00 | 0.00 | 0.00 | 90 | 1019.4 |
| 20260507003844 | 12 | 155 | 0.0 | 0.0 | 0.00 | 0.00 | 0.00 | 90 | 1019.3 |
| 20260507003600 | 12 | 155 | 0.0 | 0.0 | 0.00 | 0.00 | 0.00 | 90 | 1019.4 |
| 20260507002834 | 12 | 155 | 0.0 | 0.0 | 0.00 | 0.00 | 0.00 | 90 | 1019.3 |
| 20260507002326 | 12 | 155 | 0.0 | 0.0 | 0.00 | 0.00 | 0.00 | 91 | 1019.3 |
| 20260507001820 | 12 | 155 | 0.0 | 0.0 | 0.00 | 0.00 | 0.00 | 90 | 1019.3 |
| 20260507001314 | 12 | 155 | 0.0 | 0.0 | 0.00 | 0.00 | 0.00 | 90 | 1019.2 |
| 20260507000809 | 12 | 155 | 0.0 | 0.0 | 0.00 | 0.00 | 0.00 | 89 | 1019.2 |
| 20260507000302 | 12 | 155 | 0.0 | 0.0 | 0.00 | 0.00 | 0.00 | 89 | 1019.2 |
| 20260506235757 | 12 | 155 | 0.0 | 0.0 | 0.00 | 0.00 | 0.00 | 88 | 1019.2 |
| 20260506235512 | 12 | 155 | 0.0 | 1.6 | 0.00 | 0.00 | 0.00 | 87 | 1019.3 |
| 20260506234745 | 13 | 155 | 0.0 | 3.2 | 0.00 | 0.00 | 0.00 | 86 | 1019.2 |
| 20260506234239 | 13 | 333 | 0.0 | 3.2 | 0.00 | 0.00 | 0.00 | 85 | 1019.2 |
| 20260506233732 | 13 | 336 | 0.0 | 0.0 | 0.00 | 0.00 | 0.00 | 84 | 1019.1 |
| 20260506233226 | 13 | 271 | 0.0 | 3.2 | 0.00 | 0.00 | 0.00 | 83 | 1019.1 |
| 20260506232721 | 14 | 86 | 0.0 | 3.2 | 0.00 | 0.00 | 0.00 | 83 | 1019.1 |
| 20260506232442 | 14 | 309 | 0.0 | 0.0 | 0.00 | 0.00 | 0.00 | 82 | 1019.0 |
| 20260506231935 | 14 | 283 | 0.0 | 0.0 | 0.00 | 0.00 | 0.00 | 81 | 1018.9 |
| 20260506231202 | 14 | 316 | 0.0 | 0.0 | 0.00 | 0.00 | 0.00 | 82 | 1018.9 |
| 20260506230658 | 14 | 295 | 0.0 | 1.6 | 0.00 | 0.00 | 0.00 | 81 | 1018.8 |
| 20260506230150 | 14 | 327 | 0.0 | 8.0 | 0.00 | 0.00 | 0.00 | 81 | 1018.8 |
| 20260506225644 | 14 | 316 | 0.0 | 8.0 | 0.00 | 0.00 | 0.00 | 81 | 1018.8 |
| 20260506225138 | 15 | 275 | 0.0 | 3.2 | 0.00 | 0.00 | 0.00 | 80 | 1018.9 |
| 20260506224632 | 15 | 185 | 0.0 | 9.7 | 0.00 | 0.00 | 0.00 | 80 | 1018.9 |
| 20260506224126 | 15 | 139 | 0.0 | 9.7 | 0.00 | 0.00 | 0.00 | 79 | 1018.9 |
| 20260506223620 | 15 | 166 | 0.0 | 0.0 | 0.00 | 0.00 | 0.00 | 79 | 1018.9 |
| 20260506223114 | 15 | 257 | 0.0 | 3.2 | 0.00 | 0.00 | 0.00 | 80 | 1018.9 |
| 20260506222842 | 15 | 256 | 0.0 | 3.2 | 0.00 | 0.00 | 0.00 | 79 | 1018.9 |
| 20260506222102 | 15 | 247 | 0.0 | 4.8 | 0.00 | 0.00 | 0.00 | 80 | 1018.9 |
| 20260506221557 | 15 | 217 | 0.0 | 4.8 | 0.00 | 0.00 | 0.00 | 79 | 1018.9 |
| 20260506221313 | 15 | 155 | 0.0 | 3.2 | 0.00 | 0.00 | 0.00 | 79 | 1018.8 |
| 20260506220545 | 15 | 87 | 0.0 | 20.9 | 0.00 | 0.00 | 0.00 | 82 | 1018.7 |
| 20260506220304 | 15 | 196 | 0.0 | 20.9 | 0.00 | 0.00 | 0.00 | 79 | 1018.7 |
| 20260506215532 | 15 | 202 | 0.0 | 16.1 | 0.00 | 0.00 | 0.00 | 76 | 1018.8 |
| 20260506215027 | 16 | 173 | 0.0 | 16.1 | 0.00 | 0.00 | 0.00 | 77 | 1018.8 |
| 20260506214523 | 16 | 41 | 0.0 | 11.3 | 0.00 | 0.00 | 0.00 | 75 | 1018.7 |
| 20260506214023 | 16 | 95 | 0.0 | 1.6 | 0.00 | 0.00 | 0.00 | 74 | 1018.7 |
| 20260506213524 | 16 | 177 | 0.0 | 1.6 | 0.00 | 0.00 | 0.00 | 79 | 1018.7 |
| 20260506213240 | 16 | 89 | 0.0 | 3.2 | 0.00 | 0.00 | 0.00 | 75 | 1018.7 |
| 20260506212521 | 17 | 355 | 0.0 | 3.2 | 0.00 | 0.00 | 0.00 | 76 | 1018.8 |
| 20260506212020 | 17 | 117 | 0.0 | 1.6 | 0.00 | 0.00 | 0.00 | 74 | 1018.7 |
| 20260506211521 | 17 | 297 | 0.0 | 1.6 | 0.00 | 0.00 | 0.00 | 77 | 1018.8 |
| 20260506211241 | 17 | 219 | 0.0 | 0.0 | 0.00 | 0.00 | 0.00 | 78 | 1018.7 |
| 20260506210518 | 16 | 53 | 0.0 | 0.0 | 0.00 | 0.00 | 0.00 | 79 | 1018.6 |
| 20260506210015 | 16 | 279 | 0.0 | 0.0 | 0.00 | 0.00 | 0.00 | 78 | 1018.6 |
| 20260506205750 | 16 | 152 | 0.0 | 0.0 | 0.00 | 0.00 | 0.00 | 78 | 1018.5 |
| 20260506205011 | 16 | 153 | 0.0 | 0.0 | 0.00 | 0.00 | 0.00 | 77 | 1018.5 |
| 20260506204510 | 16 | 139 | 0.0 | 0.0 | 0.00 | 0.00 | 0.00 | 76 | 1018.6 |
| 20260506204009 | 16 | 330 | 0.0 | 1.6 | 0.00 | 0.00 | 0.00 | 76 | 1018.5 |
| 20260506203733 | 16 | 160 | 0.0 | 1.6 | 0.00 | 0.00 | 0.00 | 77 | 1018.5 |
| 20260506203011 | 17 | 91 | 0.0 | 1.6 | 0.00 | 0.00 | 0.00 | 74 | 1018.5 |
| 20260506202511 | 17 | 280 | 0.0 | 0.0 | 0.00 | 0.00 | 0.00 | 73 | 1018.4 |
| 20260506202011 | 17 | 143 | 0.0 | 0.0 | 0.00 | 0.00 | 0.00 | 73 | 1018.4 |
| 20260506201509 | 18 | 143 | 0.0 | 4.8 | 0.00 | 0.00 | 0.00 | 74 | 1018.4 |
| 20260506201009 | 18 | 325 | 0.0 | 4.8 | 0.00 | 0.00 | 0.00 | 75 | 1018.4 |
| 20260506200509 | 17 | 203 | 0.0 | 1.6 | 0.00 | 0.00 | 0.00 | 76 | 1018.1 |
| 20260506200011 | 17 | 310 | 0.0 | 0.0 | 0.00 | 0.00 | 0.00 | 77 | 1018.3 |
| 20260506195508 | 17 | 201 | 0.0 | 0.0 | 0.00 | 0.00 | 0.00 | 80 | 1018.3 |
| 20260506195010 | 16 | 200 | 0.0 | 0.0 | 0.00 | 0.00 | 0.00 | 79 | 1018.3 |
| 20260506194727 | 16 | 200 | 0.0 | 0.0 | 0.00 | 0.00 | 0.00 | 80 | 1018.3 |
| 20260506194011 | 16 | 173 | 0.0 | 0.0 | 0.00 | 0.00 | 0.00 | 81 | 1018.3 |
| 20260506193509 | 16 | 120 | 0.0 | 0.0 | 0.00 | 0.00 | 0.00 | 82 | 1018.4 |
| 20260506193010 | 16 | 101 | 0.0 | 1.6 | 0.00 | 0.00 | 0.00 | 82 | 1018.5 |
| 20260506192509 | 16 | 114 | 0.0 | 1.6 | 0.00 | 0.00 | 0.00 | 78 | 1018.4 |
| 20260506192011 | 16 | 151 | 0.0 | 0.0 | 0.00 | 0.00 | 0.00 | 81 | 1018.3 |
| 20260506191510 | 15 | 321 | 0.0 | 0.0 | 0.00 | 0.00 | 0.00 | 80 | 1018.4 |
| 20260506191230 | 15 | 265 | 0.0 | 0.0 | 0.00 | 0.00 | 0.00 | 84 | 1018.5 |
| 20260506190507 | 15 | 164 | 0.0 | 0.0 | 0.00 | 0.00 | 0.00 | 82 | 1018.5 |
| 20260506190007 | 15 | 327 | 0.0 | 0.0 | 0.00 | 0.00 | 0.00 | 82 | 1018.5 |
| 20260506185735 | 15 | 299 | 0.0 | 0.0 | 0.00 | 0.00 | 0.00 | 82 | 1018.4 |
| 20260506185455 | 15 | 304 | 0.0 | 0.0 | 0.00 | 0.00 | 0.00 | 83 | 1018.4 |
| 20260506184504 | 15 | 304 | 0.0 | 0.0 | 0.00 | 0.00 | 0.00 | 84 | 1018.4 |
| 20260506184000 | 15 | 331 | 0.0 | 0.0 | 0.00 | 0.00 | 0.00 | 84 | 1018.3 |
| 20260506183507 | 15 | 311 | 0.0 | 0.0 | 0.00 | 0.00 | 0.00 | 84 | 1018.1 |
| 20260506183000 | 14 | 89 | 0.0 | 0.0 | 0.00 | 0.00 | 0.00 | 85 | 1018.1 |
| 20260506182452 | 14 | 94 | 0.0 | 3.2 | 0.00 | 0.00 | 0.00 | 85 | 1018.1 |
| 20260506181946 | 14 | 309 | 0.0 | 3.2 | 0.00 | 0.00 | 0.00 | 85 | 1018.1 |
| 20260506181439 | 14 | 148 | 0.0 | 3.2 | 0.00 | 0.00 | 0.00 | 85 | 1018.1 |
| 20260506180933 | 14 | 150 | 0.0 | 1.6 | 0.00 | 0.00 | 0.00 | 87 | 1018.3 |
| 20260506180428 | 13 | 265 | 0.0 | 3.2 | 0.00 | 0.00 | 0.00 | 85 | 1018.4 |
| 20260506175923 | 14 | 230 | 0.0 | 3.2 | 0.00 | 0.00 | 0.00 | 84 | 1018.5 |
| 20260506175415 | 14 | 202 | 0.0 | 3.2 | 0.00 | 0.00 | 0.00 | 84 | 1018.4 |
| 20260506174910 | 14 | 299 | 0.0 | 1.6 | 0.00 | 0.00 | 0.00 | 85 | 1018.5 |
| 20260506174406 | 14 | 288 | 0.0 | 1.6 | 0.00 | 0.00 | 0.00 | 85 | 1018.5 |
| 20260506174113 | 14 | 254 | 0.0 | 1.6 | 0.00 | 0.00 | 0.00 | 85 | 1018.5 |
| 20260506173831 | 14 | 327 | 0.0 | 1.6 | 0.00 | 0.00 | 0.00 | 86 | 1018.4 |
| 20260506172846 | 14 | 327 | 0.0 | 1.6 | 0.00 | 0.00 | 0.00 | 87 | 1018.3 |
| 20260506172342 | 14 | 327 | 0.0 | 1.6 | 0.00 | 0.00 | 0.00 | 85 | 1018.1 |
| 20260506172053 | 14 | 327 | 0.0 | 1.6 | 0.00 | 0.00 | 0.00 | 85 | 1018.1 |
| 20260506171328 | 13 | 315 | 0.0 | 1.6 | 0.00 | 0.00 | 0.00 | 86 | 1018.0 |
| 20260506170821 | 13 | 304 | 0.0 | 0.0 | 0.00 | 0.00 | 0.00 | 86 | 1018.0 |
| 20260506170319 | 13 | 304 | 0.0 | 0.0 | 0.00 | 0.00 | 0.00 | 87 | 1017.9 |
| 20260506165810 | 13 | 336 | 0.0 | 0.0 | 0.00 | 0.00 | 0.00 | 86 | 1017.8 |
| 20260506165305 | 13 | 336 | 0.0 | 0.0 | 0.00 | 0.00 | 0.00 | 87 | 1017.8 |
| 20260506164758 | 13 | 336 | 0.0 | 0.0 | 0.00 | 0.00 | 0.00 | 87 | 1017.9 |
| 20260506164254 | 13 | 336 | 0.0 | 0.0 | 0.00 | 0.00 | 0.00 | 89 | 1017.9 |
| 20260506164236 | 13 | 336 | 0.0 | 0.0 | 0.00 | 0.00 | 0.00 | 89 | 1017.9 |
| 20260506163241 | 13 | 309 | 0.0 | 0.0 | 0.00 | 0.00 | 0.00 | 88 | 1017.9 |
| 20260506162734 | 13 | 309 | 0.0 | 1.6 | 0.00 | 0.00 | 0.00 | 89 | 1018.0 |
| 20260506162457 | 13 | 323 | 0.0 | 1.6 | 0.00 | 0.00 | 0.00 | 90 | 1017.9 |
| 20260506161722 | 12 | 323 | 0.0 | 0.0 | 0.00 | 0.00 | 0.00 | 91 | 1017.9 |
| 20260506161216 | 12 | 323 | 0.0 | 0.0 | 0.00 | 0.00 | 0.00 | 91 | 1018.1 |
| 20260506160928 | 12 | 323 | 0.0 | 0.0 | 0.00 | 0.00 | 0.00 | 91 | 1018.1 |
| 20260506160207 | 12 | 323 | 0.0 | 0.0 | 0.00 | 0.00 | 0.00 | 91 | 1018.1 |
| 20260506155658 | 12 | 323 | 0.0 | 0.0 | 0.00 | 0.00 | 0.00 | 91 | 1018.0 |
| 20260506155151 | 12 | 323 | 0.0 | 0.0 | 0.00 | 0.00 | 0.00 | 91 | 1018.0 |
| 20260506154646 | 12 | 313 | 0.0 | 1.6 | 0.00 | 0.00 | 0.00 | 91 | 1017.9 |
| 20260506154359 | 12 | 40 | 0.0 | 1.6 | 0.00 | 0.00 | 0.00 | 92 | 1018.0 |
| 20260506153857 | 12 | 78 | 0.0 | 1.6 | 0.00 | 0.00 | 0.00 | 92 | 1017.9 |
| 20260506153128 | 12 | 247 | 0.0 | 1.6 | 0.00 | 0.00 | 0.00 | 93 | 1018.0 |
| 20260506152855 | 12 | 107 | 0.0 | 1.6 | 0.00 | 0.00 | 0.00 | 92 | 1018.0 |
| 20260506152118 | 12 | 22 | 0.0 | 0.0 | 0.00 | 0.00 | 0.00 | 92 | 1018.0 |
| 20260506151610 | 12 | 320 | 0.0 | 0.0 | 0.00 | 0.00 | 0.00 | 93 | 1018.1 |
| 20260506151104 | 12 | 320 | 0.0 | 0.0 | 0.00 | 0.00 | 0.00 | 93 | 1018.1 |
| 20260506150558 | 12 | 320 | 0.0 | 0.0 | 0.00 | 0.00 | 0.00 | 93 | 1018.0 |
| 20260506150054 | 12 | 51 | 0.0 | 0.0 | 0.00 | 0.00 | 0.00 | 93 | 1018.0 |
| 20260506145040 | 11 | 51 | 0.0 | 0.0 | 0.00 | 0.00 | 0.00 | 93 | 1017.6 |
| 20260506144534 | 11 | 52 | 0.0 | 0.0 | 0.00 | 0.00 | 0.00 | 93 | 1017.7 |
| 20260506144030 | 11 | 52 | 0.0 | 0.0 | 0.00 | 0.00 | 0.00 | 94 | 1017.8 |
| 20260506143744 | 11 | 52 | 0.0 | 0.0 | 0.00 | 0.00 | 0.00 | 94 | 1017.7 |
| 20260506143242 | 11 | 52 | 0.0 | 0.0 | 0.00 | 0.00 | 0.00 | 94 | 1017.9 |
| 20260506142510 | 11 | 52 | 0.0 | 0.0 | 0.00 | 0.00 | 0.00 | 94 | 1017.9 |
| 20260506142006 | 11 | 52 | 0.0 | 0.0 | 0.00 | 0.00 | 0.00 | 94 | 1018.0 |
| 20260506141725 | 11 | 52 | 0.0 | 0.0 | 0.00 | 0.00 | 0.00 | 93 | 1017.9 |
| 20260506140952 | 11 | 14 | 0.0 | 0.0 | 0.00 | 0.00 | 0.00 | 94 | 1018.0 |
| 20260506140446 | 11 | 326 | 0.0 | 0.0 | 0.00 | 0.00 | 0.00 | 94 | 1018.0 |
| 20260506135944 | 11 | 294 | 0.0 | 0.0 | 0.00 | 0.00 | 0.00 | 95 | 1017.9 |
| 20260506135434 | 11 | 134 | 0.0 | 0.0 | 0.00 | 0.00 | 0.00 | 95 | 1017.7 |
| 20260506134925 | 11 | 134 | 0.0 | 0.0 | 0.00 | 0.00 | 0.00 | 95 | 1017.7 |
| 20260506134420 | 11 | 134 | 0.0 | 0.0 | 0.00 | 0.00 | 0.00 | 95 | 1017.6 |
| 20260506133914 | 11 | 134 | 0.0 | 1.6 | 0.00 | 0.00 | 0.00 | 95 | 1017.3 |
| 20260506133407 | 11 | 134 | 0.0 | 1.6 | 0.00 | 0.00 | 0.00 | 96 | 1017.5 |
| 20260506132901 | 11 | 79 | 0.0 | 0.0 | 0.00 | 0.00 | 0.00 | 96 | 1017.5 |
| 20260506132629 | 11 | 79 | 0.0 | 0.0 | 0.00 | 0.00 | 0.00 | 96 | 1017.5 |
| 20260506131901 | 11 | 196 | 0.0 | 0.0 | 0.00 | 0.00 | 0.00 | 96 | 1017.4 |
| 20260506131402 | 11 | 196 | 0.0 | 0.0 | 0.00 | 0.00 | 0.00 | 96 | 1017.3 |
| 20260506130859 | 11 | 196 | 0.0 | 0.0 | 0.00 | 0.00 | 0.00 | 96 | 1017.3 |
| 20260506130358 | 11 | 196 | 0.0 | 0.0 | 0.00 | 0.00 | 0.00 | 96 | 1017.2 |
| 20260506125857 | 11 | 196 | 0.0 | 0.0 | 0.00 | 0.00 | 0.00 | 96 | 1017.2 |
| 20260506125358 | 11 | 196 | 0.0 | 0.0 | 0.00 | 0.00 | 0.00 | 96 | 1017.2 |
| 20260506124900 | 11 | 196 | 0.0 | 0.0 | 0.00 | 0.00 | 0.00 | 96 | 1017.2 |
| 20260506124359 | 11 | 196 | 0.0 | 0.0 | 0.00 | 0.00 | 0.00 | 96 | 1017.2 |
| 20260506123902 | 11 | 196 | 0.0 | 0.0 | 0.00 | 0.00 | 0.00 | 96 | 1017.2 |
| 20260506123354 | 11 | 196 | 0.0 | 0.0 | 0.00 | 0.00 | 0.00 | 96 | 1017.2 |
| 20260506122855 | 11 | 196 | 0.0 | 0.0 | 0.00 | 0.00 | 0.00 | 96 | 1017.1 |
| 20260506122354 | 11 | 196 | 0.0 | 0.0 | 0.00 | 0.00 | 0.00 | 96 | 1017.0 |
| 20260506121854 | 11 | 196 | 0.0 | 0.0 | 0.00 | 0.00 | 0.00 | 96 | 1017.0 |
| 20260506121353 | 11 | 196 | 0.0 | 0.0 | 0.00 | 0.00 | 0.00 | 96 | 1017.0 |
| 20260506121125 | 11 | 196 | 0.0 | 0.0 | 0.00 | 0.00 | 0.00 | 96 | 1016.9 |
| 20260506120353 | 11 | 196 | 0.0 | 0.0 | 0.00 | 0.00 | 0.00 | 96 | 1017.0 |
| 20260506115854 | 11 | 196 | 0.0 | 0.0 | 0.00 | 0.00 | 0.00 | 96 | 1017.0 |
| 20260506115356 | 11 | 196 | 0.0 | 0.0 | 0.00 | 0.00 | 0.00 | 96 | 1016.9 |
| 20260506114849 | 11 | 196 | 0.0 | 0.0 | 0.00 | 0.00 | 0.00 | 96 | 1016.8 |
| 20260506114342 | 11 | 196 | 0.0 | 0.0 | 0.00 | 0.00 | 0.00 | 96 | 1016.9 |
| 20260506113838 | 11 | 196 | 0.0 | 0.0 | 0.00 | 0.00 | 0.00 | 96 | 1016.9 |
| 20260506113331 | 11 | 196 | 0.0 | 0.0 | 0.00 | 0.00 | 0.00 | 96 | 1016.9 |
| 20260506112824 | 11 | 196 | 0.0 | 0.0 | 0.00 | 0.00 | 0.00 | 96 | 1016.8 |
| 20260506112319 | 10 | 196 | 0.0 | 0.0 | 0.00 | 0.00 | 0.00 | 96 | 1016.9 |
| 20260506112028 | 10 | 196 | 0.0 | 0.0 | 0.00 | 0.00 | 0.00 | 96 | 1016.9 |
| 20260506111306 | 10 | 196 | 0.0 | 0.0 | 0.00 | 0.00 | 0.00 | 96 | 1016.8 |
| 20260506110759 | 10 | 196 | 0.0 | 0.0 | 0.00 | 0.00 | 0.00 | 96 | 1016.8 |
| 20260506110255 | 10 | 196 | 0.0 | 0.0 | 0.00 | 0.00 | 0.00 | 96 | 1016.8 |
| 20260506105748 | 10 | 196 | 0.0 | 0.0 | 0.00 | 0.00 | 0.00 | 96 | 1016.7 |
| 20260506105505 | 10 | 196 | 0.0 | 0.0 | 0.00 | 0.00 | 0.00 | 96 | 1016.6 |
| 20260506104736 | 10 | 196 | 0.0 | 0.0 | 0.00 | 0.00 | 0.00 | 96 | 1016.6 |
| 20260506104232 | 10 | 196 | 0.0 | 0.0 | 0.00 | 0.00 | 0.00 | 96 | 1016.5 |
| 20260506103724 | 10 | 196 | 0.0 | 0.0 | 0.00 | 0.00 | 0.00 | 96 | 1016.4 |
| 20260506103303 | 10 | 196 | 0.0 | 0.0 | 0.00 | 0.00 | 0.00 | 96 | 1016.4 |
| 20260506102943 | 10 | 196 | 0.0 | 0.0 | 0.00 | 0.00 | 0.00 | 96 | 1016.3 |
| 20260506102206 | 10 | 196 | 0.0 | 0.0 | 0.00 | 0.00 | 0.00 | 96 | 1016.2 |
| 20260506101700 | 10 | 196 | 0.0 | 0.0 | 0.00 | 0.00 | 0.00 | 96 | 1016.2 |
| 20260506101155 | 10 | 196 | 0.0 | 0.0 | 0.00 | 0.00 | 0.00 | 96 | 1016.1 |
| 20260506100649 | 10 | 196 | 0.0 | 0.0 | 0.00 | 0.00 | 0.00 | 96 | 1016.0 |
| 20260506100142 | 10 | 196 | 0.0 | 0.0 | 0.00 | 0.00 | 0.00 | 96 | 1016.0 |
| 20260506095636 | 10 | 196 | 0.0 | 0.0 | 0.00 | 0.00 | 0.00 | 96 | 1016.0 |
| 20260506095131 | 10 | 196 | 0.0 | 0.0 | 0.00 | 0.00 | 0.00 | 96 | 1016.0 |
| 20260506094854 | 10 | 196 | 0.0 | 0.0 | 0.00 | 0.00 | 0.00 | 96 | 1016.0 |
| 20260506094311 | 10 | 196 | 0.0 | 0.0 | 0.00 | 0.00 | 0.00 | 96 | 1016.0 |
| 20260506093612 | 10 | 196 | 0.0 | 0.0 | 0.00 | 0.00 | 0.00 | 96 | 1015.9 |
| 20260506093107 | 10 | 196 | 0.0 | 0.0 | 0.00 | 0.00 | 0.00 | 96 | 1015.9 |
| 20260506092601 | 10 | 196 | 0.0 | 0.0 | 0.00 | 0.00 | 0.00 | 96 | 1016.0 |
| 20260506092054 | 10 | 196 | 0.0 | 0.0 | 0.00 | 0.00 | 0.00 | 96 | 1015.9 |
| 20260506091548 | 10 | 196 | 0.0 | 0.0 | 0.00 | 0.00 | 0.00 | 96 | 1015.9 |
| 20260506091043 | 10 | 196 | 0.0 | 0.0 | 0.00 | 0.00 | 0.00 | 96 | 1015.9 |
| 20260506090536 | 10 | 196 | 0.0 | 0.0 | 0.00 | 0.00 | 0.00 | 96 | 1015.9 |
| 20260506090030 | 10 | 196 | 0.0 | 0.0 | 0.00 | 0.00 | 0.00 | 96 | 1015.9 |
| 20260506085752 | 10 | 196 | 0.0 | 0.0 | 0.00 | 0.00 | 0.00 | 96 | 1015.8 |
| 20260506085510 | 9 | 196 | 0.0 | 0.0 | 0.00 | 0.00 | 0.00 | 96 | 1015.8 |
| 20260506084512 | 9 | 196 | 0.0 | 0.0 | 0.00 | 0.00 | 0.00 | 96 | 1015.9 |
| 20260506084006 | 9 | 196 | 0.0 | 0.0 | 0.00 | 0.00 | 0.00 | 96 | 1015.9 |
| 20260506083500 | 9 | 196 | 0.0 | 0.0 | 0.00 | 0.00 | 0.00 | 96 | 1015.8 |
| 20260506082955 | 9 | 196 | 0.0 | 0.0 | 0.00 | 0.00 | 0.00 | 95 | 1015.8 |
| 20260506082724 | 9 | 196 | 0.0 | 0.0 | 0.00 | 0.00 | 0.00 | 95 | 1015.8 |
| 20260506081942 | 9 | 196 | 0.0 | 0.0 | 0.00 | 0.00 | 0.00 | 95 | 1015.8 |
| 20260506081931 | 9 | 196 | 0.0 | 0.0 | 0.00 | 0.00 | 0.00 | 95 | 1015.8 |
| 20260506080942 | 9 | 196 | 0.0 | 0.0 | 0.00 | 0.00 | 0.00 | 95 | 1015.9 |
| 20260506080442 | 9 | 196 | 0.0 | 0.0 | 0.00 | 0.00 | 0.00 | 95 | 1015.8 |
| 20260506073436 | 9 | 196 | 0.0 | 0.0 | 0.00 | 0.00 | 0.00 | 95 | 1015.8 |
| 20260506073431 | 9 | 196 | 0.0 | 0.0 | 0.00 | 0.00 | 0.00 | 94 | 1015.8 |
| 20260506072436 | 9 | 196 | 0.0 | 0.0 | 0.00 | 0.00 | 0.00 | 95 | 1015.7 |
| 20260506071936 | 9 | 196 | 0.0 | 0.0 | 0.00 | 0.00 | 0.00 | 94 | 1015.7 |
| 20260506071437 | 9 | 196 | 0.0 | 0.0 | 0.00 | 0.00 | 0.00 | 94 | 1015.7 |
| 20260506070938 | 9 | 196 | 0.0 | 0.0 | 0.00 | 0.00 | 0.00 | 94 | 1015.7 |
| 20260506070437 | 9 | 196 | 0.0 | 0.0 | 0.00 | 0.00 | 0.00 | 94 | 1015.6 |
| 20260506062437 | 10 | 196 | 0.0 | 0.0 | 0.00 | 0.00 | 0.00 | 94 | 1015.1 |
| 20260506062151 | 10 | 196 | 0.0 | 0.0 | 0.00 | 0.00 | 0.00 | 94 | 1015.1 |
| 20260506061426 | 10 | 196 | 0.0 | 0.0 | 0.00 | 0.00 | 0.00 | 94 | 1015.1 |
| 20260506060920 | 10 | 196 | 0.0 | 0.0 | 0.00 | 0.00 | 0.00 | 94 | 1015.1 |
| 20260506060413 | 10 | 196 | 0.0 | 0.0 | 0.00 | 0.00 | 0.00 | 94 | 1015.1 |